Weather History for Fort Bragg, NC

Change the Weather History Date:

Wednesday, May 16, 2012

  Actual Average Record
Temperature  
Mean Temperature 73 °F -  
Max Temperature 82 °F 78 °F 90 °F (2013)
Min Temperature 65 °F 58 °F 48 °F (1997)
Cooling Degree Days 8    
Growing Degree Days 23 (Base 50)    
Moisture  
Dew Point 65 °F    
Average Humidity 81    
Maximum Humidity 100    
Minimum Humidity 52    
Precipitation  
Precipitation 0.42 in - - ()
Sea Level Pressure  
Sea Level Pressure 29.94 in    
Wind  
Wind Speed 3 mph (SSW)    
Max Wind Speed 14 mph    
Max Gust Speed 20 mph    
Visibility 9 miles    
Events Rain , Thunderstorm    
Averages and records for this station are not official NWS values.
T = Trace of Precipitation, MM = Missing Value Source: NWS Daily Summary

Daily Weather History Graph

Daily Weather History Graph

Search for Another Location

Airport:

Trip Planner

Search our weather history database for the weather conditions in past years. The results will help you decide how hot, cold, wet, or windy it might be!

Date:

Astronomy

May. 16, 2012 Rise Set
Actual Time 6:10 AM EDT 8:13 PM EDT
Civil Twilight 5:42 AM EDT 8:42 PM EDT
Nautical Twilight 5:08 AM EDT 9:16 PM EDT
Astronomical Twilight 4:31 AM EDT 9:53 PM EDT
Moon 3:31 AM EDT (5/16) 4:34 PM EDT (5/16)
Length of Visible Light 14h 59m
Length of Day
14h 03m
Waning Crescent, 16% of the Moon is Illuminated
May 16
Waning Crescent
May 20
New
May 28
First Quarter
Jun 4
Full
Jun 11
Last Quarter

Hourly Weather History & Observations

Time (EDT) Temp. Heat Index Dew Point Humidity Pressure Visibility Wind Dir Wind Speed Gust Speed Precip Events Conditions
12:55 AM 71.4 °F - 67.3 °F 87% 29.94 in 10.0 mi Calm Calm - N/A   Partly Cloudy
1:55 AM 69.6 °F - 67.8 °F 94% 29.94 in 10.0 mi Calm Calm - N/A   Partly Cloudy
2:55 AM 68.9 °F - 63.3 °F 82% 29.94 in 10.0 mi West 3.5 mph - N/A   Overcast
3:07 AM 68.0 °F - 62.6 °F 83% 29.93 in 10.0 mi Calm Calm - N/A Rain Light Rain
3:35 AM 68.0 °F - 64.4 °F 88% 29.94 in 10.0 mi South 3.5 mph - N/A   Partly Cloudy
3:41 AM 68.0 °F - 64.4 °F 88% 29.95 in 10.0 mi South 4.6 mph - N/A Rain Light Rain
3:55 AM 68.0 °F - 63.1 °F 84% 29.94 in 10.0 mi Calm Calm - 0.00 in Rain Light Rain
4:03 AM 68.0 °F - 62.6 °F 83% 29.95 in 10.0 mi WSW 4.6 mph - N/A Rain , Thunderstorm Light Thunderstorms and Rain
4:33 AM 66.2 °F - 64.4 °F 94% 29.96 in 2.0 mi South 9.2 mph - N/A Rain , Thunderstorm Light Thunderstorms and Rain
4:34 AM 66.2 °F - 64.4 °F 94% 29.95 in 1.8 mi Variable 6.9 mph - N/A Rain , Thunderstorm Light Thunderstorms and Rain
4:38 AM 66.2 °F - 64.4 °F 94% 29.95 in 1.5 mi SE 4.6 mph - N/A Rain , Thunderstorm Heavy Thunderstorms and Rain
4:39 AM 66.2 °F - 64.4 °F 94% 29.94 in 1.2 mi SE 4.6 mph - N/A Rain , Thunderstorm Heavy Thunderstorms and Rain
4:40 AM 66.2 °F - 64.4 °F 94% 29.94 in 1.2 mi ESE 6.9 mph - N/A Rain , Thunderstorm Heavy Thunderstorms and Rain
4:46 AM 66.2 °F - 66.2 °F 100% 29.94 in 3.0 mi South 3.5 mph - N/A Rain , Thunderstorm Light Thunderstorms and Rain
4:55 AM 65.8 °F - 65.5 °F 99% 29.94 in 7.0 mi West 3.5 mph - 0.42 in Rain , Thunderstorm Light Thunderstorms and Rain
5:05 AM 66.2 °F - 66.2 °F 100% 29.96 in 10.0 mi Variable 3.5 mph - N/A   Overcast
5:55 AM 66.0 °F - 65.8 °F 99% 29.96 in 10.0 mi Calm Calm - 0.00 in   Mostly Cloudy
6:55 AM 66.6 °F - 65.3 °F 96% 29.95 in 10.0 mi Calm Calm - N/A   Partly Cloudy
7:55 AM 67.5 °F - 66.2 °F 96% 29.96 in 10.0 mi Calm Calm - N/A   Clear
8:55 AM 69.6 °F - 66.6 °F 90% 29.97 in 10.0 mi Calm Calm - N/A   Clear
9:55 AM 73.8 °F - 67.1 °F 80% 29.97 in 10.0 mi SSE 5.8 mph - N/A   Clear
10:26 AM 75.2 °F - 64.4 °F 69% 29.97 in 10.0 mi SSW 4.6 mph - N/A Rain Light Rain
10:32 AM 75.2 °F - 64.4 °F 69% 29.97 in 10.0 mi SSW 4.6 mph - N/A   Clear
10:55 AM 77.4 °F - 64.0 °F 63% 29.97 in 10.0 mi South 5.8 mph - 0.00 in   Clear
11:55 AM 79.2 °F - 63.9 °F 59% 29.97 in 10.0 mi SSW 5.8 mph - N/A   Clear
12:55 PM 80.1 °F 81.7 °F 63.9 °F 58% 29.94 in 10.0 mi Calm Calm - N/A   Partly Cloudy
1:55 PM 81.7 °F 83.0 °F 63.7 °F 54% 29.93 in 10.0 mi Variable 4.6 mph - N/A   Scattered Clouds
2:55 PM 81.0 °F 82.5 °F 63.9 °F 56% 29.91 in 10.0 mi NNW 4.6 mph - N/A   Partly Cloudy
3:55 PM 81.9 °F 82.9 °F 62.8 °F 52% 29.88 in 10.0 mi Variable 4.6 mph - N/A   Partly Cloudy
4:41 PM 80.6 °F 82.3 °F 64.4 °F 58% 29.88 in 10.0 mi North 3.5 mph - N/A Rain Light Rain
4:55 PM 79.7 °F - 65.3 °F 61% 29.89 in 10.0 mi Calm Calm - 0.00 in   Light Drizzle
5:55 PM 75.7 °F - 67.1 °F 74% 29.90 in 10.0 mi SE 12.7 mph 19.6 mph 0.00 in Rain Light Rain
6:00 PM 75.2 °F - 66.2 °F 73% 29.91 in 10.0 mi SSE 13.8 mph 19.6 mph N/A   Partly Cloudy
6:55 PM 72.1 °F - 65.5 °F 79% 29.92 in 10.0 mi SE 8.1 mph - 0.00 in   Scattered Clouds
7:55 PM 72.0 °F - 65.1 °F 79% 29.91 in 10.0 mi SSW 4.6 mph - N/A   Partly Cloudy
8:55 PM 70.5 °F - 66.2 °F 86% 29.91 in 10.0 mi WSW 4.6 mph - N/A   Clear
9:55 PM 69.8 °F - 63.7 °F 81% 29.93 in 10.0 mi West 3.5 mph - N/A   Partly Cloudy
10:55 PM 69.8 °F - 63.7 °F 81% 29.94 in 10.0 mi WSW 3.5 mph - N/A   Scattered Clouds
11:55 PM 68.4 °F - 64.8 °F 88% 29.95 in 10.0 mi Calm Calm - N/A   Partly Cloudy